Location: Westminster
(33.3626°N, 96.4619°W)
Time: 20:59:59
(UTC+00:00)

BREEZE-M DEB (TANK) - Pass Details

Date: 03 December 2021
Orbit: 358 x 14875 km, 49.5° (Epoch: 26 January)

Event Time Altitude Azimuth Distance (km) Brightness Sun altitude
Rises 23:22:48 0° 307° (NW) 7,258 9.4 -1.7°
Reaches altitude 10° 23:29:42 10° 312° (NW) 4,431 8.2 -3.0°
Maximum altitude 23:38:10 47° 25° (NNE) 992 4.3 -4.7°
Drops below altitude 10° 23:41:18 10° 102° (ESE) 1,659 5.3 -5.3°
Enters shadow 23:42:47 - 110° (ESE) 2,334 6.1 -5.5°
